EZY234 EDDL-EGKK

Flight info

Callsign EZY234
Flight time 1h 1m
Altitude 32000
Route MODRU2H MODRU Z717 MAS UM617 SOGRI DCT DENUT L610 TEBRA
Aircraft A320/M-SDE3FGHIRWY/LB1

Departure

Time 2026-05-04 20:03
Airport Düsseldorf Airport (EDDL)

Arrival

Time 2026-05-04 21:04
Airport London Gatwick Airport (EGKK)
Time Latitude Longitude Altitude Speed Heading
2026-05-04 19:13 51.28031 6.76226 124 ft 0 kts 163°
2026-05-04 19:45 51.28038 6.76223 129 ft 4 kts 161°
2026-05-04 19:45 51.28062 6.76205 124 ft 4 kts 139°
2026-05-04 19:46 51.28079 6.76172 124 ft 4 kts 110°
2026-05-04 19:46 51.28082 6.76156 125 ft 1 kts 107°
2026-05-04 19:48 51.28090 6.76181 130 ft 2 kts 48°
2026-05-04 19:49 51.28134 6.76224 125 ft 12 kts 42°
2026-05-04 19:49 51.28237 6.76264 125 ft 18 kts 30°
2026-05-04 19:49 51.28338 6.76463 120 ft 26 kts 51°
2026-05-04 19:49 51.28438 6.76671 125 ft 17 kts 52°
2026-05-04 19:50 51.28502 6.76803 125 ft 13 kts 52°
2026-05-04 19:50 51.28553 6.76912 128 ft 13 kts 52°
2026-05-04 19:50 51.28622 6.77056 133 ft 19 kts 52°
2026-05-04 19:50 51.28705 6.77231 131 ft 17 kts 52°
2026-05-04 19:51 51.28772 6.77371 131 ft 15 kts 53°
2026-05-04 19:51 51.28838 6.77508 127 ft 15 kts 53°
2026-05-04 19:51 51.28897 6.77634 128 ft 13 kts 53°
2026-05-04 19:51 51.28947 6.77737 131 ft 12 kts 52°
2026-05-04 19:52 51.28993 6.77834 132 ft 10 kts 52°
2026-05-04 19:52 51.29028 6.77907 134 ft 7 kts 52°
2026-05-04 19:52 51.29055 6.77964 132 ft 6 kts 52°
2026-05-04 19:52 51.29083 6.78022 134 ft 7 kts 53°
2026-05-04 19:53 51.29112 6.78084 134 ft 7 kts 53°
2026-05-04 19:53 51.29139 6.78139 134 ft 6 kts 53°
2026-05-04 19:53 51.29167 6.78199 118 ft 9 kts 52°
2026-05-04 19:53 51.29205 6.78279 134 ft 9 kts 52°
2026-05-04 19:54 51.29233 6.78336 133 ft 10 kts 52°
2026-05-04 19:54 51.29274 6.78422 133 ft 9 kts 52°
2026-05-04 19:54 51.29291 6.78457 134 ft 0 kts 52°
2026-05-04 19:56 51.29292 6.78460 134 ft 2 kts 52°
2026-05-04 19:56 51.29313 6.78503 134 ft 5 kts 52°
2026-05-04 19:56 51.29338 6.78548 134 ft 6 kts 40°
2026-05-04 19:57 51.29366 6.78567 133 ft 0 kts 13°
2026-05-04 19:57 51.29368 6.78567 133 ft 1 kts 13°
2026-05-04 19:57 51.29369 6.78568 133 ft 0 kts 13°
2026-05-04 20:00 51.29376 6.78569 133 ft 3 kts
2026-05-04 20:01 51.29419 6.78572 133 ft 7 kts 360°
2026-05-04 20:01 51.29465 6.78567 134 ft 8 kts 353°
2026-05-04 20:01 51.29512 6.78552 136 ft 5 kts 335°
2026-05-04 20:01 51.29532 6.78513 135 ft 4 kts 278°
2026-05-04 20:02 51.29513 6.78455 133 ft 8 kts 235°
2026-05-04 20:02 51.29504 6.78435 133 ft 10 kts 234°
2026-05-04 20:02 51.29269 6.77941 135 ft 96 kts 233°
2026-05-04 20:02 51.28727 6.76797 165 ft 156 kts 233°
2026-05-04 20:03 51.28061 6.75384 912 ft 158 kts 232°
2026-05-04 20:03 51.27408 6.73968 1722 ft 163 kts 233°
2026-05-04 20:03 51.26686 6.72412 2169 ft 185 kts 233°
2026-05-04 20:03 51.25880 6.70659 2636 ft 211 kts 233°
2026-05-04 20:04 51.24959 6.68669 3245 ft 234 kts 232°
2026-05-04 20:04 51.23945 6.66486 3975 ft 255 kts 233°
2026-05-04 20:04 51.22926 6.64117 4885 ft 253 kts 244°
2026-05-04 20:04 51.22678 6.61319 5732 ft 266 kts 279°
2026-05-04 20:05 51.23522 6.58706 6715 ft 276 kts 314°
2026-05-04 20:05 51.25155 6.57033 7803 ft 283 kts 333°
2026-05-04 20:05 51.26949 6.55680 9036 ft 286 kts 333°
2026-05-04 20:05 51.28781 6.54361 10107 ft 289 kts 334°
2026-05-04 20:06 51.30639 6.53042 10991 ft 295 kts 334°
2026-05-04 20:06 51.32506 6.51652 11927 ft 298 kts 328°
2026-05-04 20:06 51.34241 6.49800 12798 ft 301 kts 320°
2026-05-04 20:06 51.35859 6.47679 13672 ft 306 kts 316°
2026-05-04 20:07 51.37483 6.45396 14461 ft 310 kts 316°
2026-05-04 20:07 51.38971 6.42935 15284 ft 310 kts 302°
2026-05-04 20:07 51.39781 6.39753 15972 ft 310 kts 275°
2026-05-04 20:07 51.39648 6.36324 16712 ft 310 kts 253°
2026-05-04 20:08 51.38828 6.33151 17525 ft 310 kts 236°
2026-05-04 20:08 51.37436 6.30530 18331 ft 310 kts 218°
2026-05-04 20:08 51.35548 6.28832 18963 ft 314 kts 202°
2026-05-04 20:08 51.33532 6.27554 19685 ft 315 kts 202°
2026-05-04 20:09 51.31467 6.26269 20234 ft 325 kts 201°
2026-05-04 20:09 51.29275 6.24972 20372 ft 346 kts 201°
2026-05-04 20:09 51.26962 6.23640 20759 ft 357 kts 200°
2026-05-04 20:09 51.24605 6.22292 21363 ft 361 kts 201°
2026-05-04 20:10 51.22264 6.20945 21994 ft 363 kts 201°
2026-05-04 20:10 51.19880 6.19562 22649 ft 365 kts 201°
2026-05-04 20:10 51.17483 6.18164 23317 ft 368 kts 201°
2026-05-04 20:10 51.15064 6.16751 23871 ft 370 kts 201°
2026-05-04 20:11 51.12631 6.15333 24411 ft 372 kts 201°
2026-05-04 20:11 51.10188 6.13917 24968 ft 374 kts 201°
2026-05-04 20:11 51.07727 6.12495 25497 ft 376 kts 201°
2026-05-04 20:11 51.05310 6.11010 26015 ft 377 kts 206°
2026-05-04 20:12 51.03050 6.08876 26493 ft 379 kts 217°
2026-05-04 20:12 51.01094 6.06058 26993 ft 381 kts 227°
2026-05-04 20:12 50.99518 6.02652 27499 ft 385 kts 238°
2026-05-04 20:12 50.98221 5.98955 28011 ft 387 kts 239°
2026-05-04 20:13 50.97047 5.95086 28493 ft 392 kts 247°
2026-05-04 20:13 50.96261 5.90905 28963 ft 396 kts 251°
2026-05-04 20:13 50.95532 5.86682 29451 ft 397 kts 251°
2026-05-04 20:13 50.94788 5.82428 29906 ft 399 kts 251°
2026-05-04 20:14 50.94044 5.78234 30306 ft 401 kts 251°
2026-05-04 20:14 50.93281 5.73964 30668 ft 403 kts 251°
2026-05-04 20:14 50.92513 5.69681 31024 ft 404 kts 251°
2026-05-04 20:14 50.91740 5.65373 31378 ft 406 kts 251°
2026-05-04 20:15 50.90964 5.61049 31717 ft 409 kts 250°
2026-05-04 20:15 50.90178 5.56691 31959 ft 410 kts 250°
2026-05-04 20:15 50.89404 5.52397 32001 ft 395 kts 250°
2026-05-04 20:15 50.88668 5.48299 32001 ft 381 kts 250°
2026-05-04 20:16 50.87944 5.44286 32005 ft 376 kts 250°
2026-05-04 20:16 50.86506 5.36391 32006 ft 374 kts 250°
2026-05-04 20:17 50.85049 5.28476 32007 ft 374 kts 250°
2026-05-04 20:17 50.83603 5.20610 32015 ft 374 kts 250°
2026-05-04 20:18 50.82147 5.12710 32031 ft 374 kts 250°
2026-05-04 20:18 50.81609 5.04469 32020 ft 385 kts 270°
2026-05-04 20:18 50.82156 5.00286 32013 ft 394 kts 282°
2026-05-04 20:19 50.83253 4.96263 32008 ft 400 kts 290°
2026-05-04 20:19 50.85761 4.88423 32004 ft 401 kts 290°
2026-05-04 20:20 50.88262 4.80515 31994 ft 401 kts 290°
2026-05-04 20:20 50.90742 4.72640 31991 ft 401 kts 290°
2026-05-04 20:21 50.93216 4.64757 31999 ft 401 kts 289°
2026-05-04 20:21 50.96950 4.52800 31992 ft 403 kts 289°
2026-05-04 20:22 50.99438 4.44795 31991 ft 404 kts 289°
2026-05-04 20:22 51.01908 4.36824 31991 ft 404 kts 289°
2026-05-04 20:23 51.04399 4.28796 31994 ft 405 kts 289°
2026-05-04 20:23 51.06884 4.20751 31992 ft 405 kts 289°
2026-05-04 20:24 51.09342 4.12743 31989 ft 405 kts 289°
2026-05-04 20:24 51.11815 4.04659 31984 ft 404 kts 289°
2026-05-04 20:25 51.14262 3.96643 31977 ft 404 kts 289°
2026-05-04 20:25 51.16726 3.88566 31977 ft 404 kts 289°
2026-05-04 20:26 51.19162 3.80541 31981 ft 404 kts 289°
2026-05-04 20:26 51.21609 3.72430 31984 ft 405 kts 289°
2026-05-04 20:27 51.23796 3.64179 31975 ft 398 kts 278°
2026-05-04 20:27 51.24960 3.55639 31973 ft 396 kts 275°
2026-05-04 20:28 51.26100 3.47039 31978 ft 396 kts 275°
2026-05-04 20:28 51.27240 3.38411 31994 ft 397 kts 275°
2026-05-04 20:29 51.28355 3.29819 32009 ft 397 kts 275°
2026-05-04 20:29 51.29459 3.21168 32017 ft 397 kts 275°
2026-05-04 20:30 51.30562 3.12497 32017 ft 397 kts 275°
2026-05-04 20:30 51.31651 3.03878 31707 ft 398 kts 275°
2026-05-04 20:31 51.32197 2.99532 31445 ft 399 kts 275°
2026-05-04 20:31 51.32745 2.95171 31190 ft 400 kts 276°
2026-05-04 20:31 51.33288 2.90848 30932 ft 401 kts 276°
2026-05-04 20:31 51.33838 2.86467 30700 ft 401 kts 276°
2026-05-04 20:32 51.34383 2.82071 30455 ft 402 kts 276°
2026-05-04 20:32 51.34922 2.77679 30207 ft 401 kts 276°
2026-05-04 20:32 51.35461 2.73288 29946 ft 400 kts 276°
2026-05-04 20:32 51.35994 2.68975 29652 ft 399 kts 276°
2026-05-04 20:33 51.36532 2.64630 29347 ft 395 kts 276°
2026-05-04 20:33 51.37066 2.60329 28839 ft 390 kts 277°
2026-05-04 20:33 51.37590 2.56090 28340 ft 384 kts 277°
2026-05-04 20:33 51.38096 2.51975 27831 ft 379 kts 277°
2026-05-04 20:34 51.38597 2.47866 27367 ft 373 kts 277°
2026-05-04 20:34 51.39088 2.43806 26892 ft 369 kts 277°
2026-05-04 20:34 51.39571 2.39787 26445 ft 363 kts 277°
2026-05-04 20:34 51.40043 2.35826 26000 ft 359 kts 277°
2026-05-04 20:35 51.40505 2.31959 25564 ft 355 kts 277°
2026-05-04 20:35 51.40970 2.28085 25131 ft 351 kts 278°
2026-05-04 20:35 51.41432 2.24251 24696 ft 348 kts 278°
2026-05-04 20:35 51.41897 2.20458 24257 ft 344 kts 278°
2026-05-04 20:36 51.42354 2.16759 23824 ft 341 kts 278°
2026-05-04 20:36 51.42814 2.13033 23334 ft 339 kts 279°
2026-05-04 20:36 51.43267 2.09333 22870 ft 336 kts 279°
2026-05-04 20:36 51.43712 2.05675 22428 ft 332 kts 279°
2026-05-04 20:37 51.44149 2.02062 21997 ft 329 kts 279°
2026-05-04 20:37 51.44581 1.98469 21556 ft 327 kts 279°
2026-05-04 20:37 51.44976 1.95201 22851 ft 237 kts 281°
2026-05-04 20:37 51.45729 1.93140 24868 ft 203 kts 313°
2026-05-04 20:38 51.46719 1.91690 25474 ft 202 kts 309°
2026-05-04 20:38 51.47828 1.89715 24412 ft 276 kts 304°
2026-05-04 20:38 51.48928 1.86827 23634 ft 330 kts 285°
2026-05-04 20:38 51.49206 1.84309 22977 ft 363 kts 269°
2026-05-04 20:39 51.48967 1.79999 21879 ft 411 kts 262°
2026-05-04 20:39 51.48481 1.73540 20305 ft 467 kts 262°
2026-05-04 20:39 51.48231 1.70113 20764 ft 460 kts 263°
2026-05-04 20:39 51.48092 1.65066 22039 ft 442 kts 268°
2026-05-04 20:40 51.47997 1.60241 23463 ft 424 kts 264°
2026-05-04 20:40 51.47266 1.54125 24081 ft 428 kts 250°
2026-05-04 20:40 51.46522 1.51133 23913 ft 440 kts 246°
2026-05-04 20:40 51.45357 1.46477 23686 ft 457 kts 249°
2026-05-04 20:41 51.44217 1.41634 23460 ft 471 kts 247°
2026-05-04 20:41 51.42649 1.37109 24299 ft 455 kts 234°
2026-05-04 20:41 51.40551 1.33332 24865 ft 453 kts 223°
2026-05-04 20:41 51.38121 1.30103 25238 ft 453 kts 217°
2026-05-04 20:42 51.35608 1.27272 25564 ft 438 kts 214°
2026-05-04 20:42 51.33077 1.24607 24619 ft 435 kts 214°
2026-05-04 20:42 51.30499 1.21917 23534 ft 449 kts 214°
2026-05-04 20:42 51.27859 1.19080 22280 ft 463 kts 215°
2026-05-04 20:43 51.25251 1.16192 21511 ft 451 kts 215°
2026-05-04 20:43 51.22767 1.13307 21165 ft 429 kts 217°
2026-05-04 20:43 51.20405 1.10478 20992 ft 425 kts 217°
2026-05-04 20:43 51.17991 1.07560 20861 ft 443 kts 217°
2026-05-04 20:44 51.15520 1.04589 20721 ft 454 kts 217°
2026-05-04 20:44 51.13000 1.01596 20541 ft 448 kts 216°
2026-05-04 20:44 51.10498 0.98659 20349 ft 444 kts 216°
2026-05-04 20:44 51.08014 0.95766 20166 ft 440 kts 216°
2026-05-04 20:45 51.05786 0.92461 19972 ft 438 kts 231°
2026-05-04 20:45 51.04251 0.88295 19799 ft 437 kts 243°
2026-05-04 20:45 51.02943 0.84005 19621 ft 435 kts 243°
2026-05-04 20:45 51.01641 0.79636 19451 ft 442 kts 244°
2026-05-04 20:46 51.00337 0.75225 19267 ft 439 kts 244°
2026-05-04 20:46 50.99059 0.70890 19090 ft 419 kts 244°
2026-05-04 20:46 50.97864 0.66846 18976 ft 387 kts 243°
2026-05-04 20:46 50.96751 0.63109 18978 ft 365 kts 243°
2026-05-04 20:47 50.95702 0.59606 18854 ft 337 kts 243°
2026-05-04 20:47 50.94711 0.56320 18384 ft 325 kts 243°
2026-05-04 20:47 50.93732 0.53101 17607 ft 322 kts 243°
2026-05-04 20:47 50.92757 0.49910 16844 ft 319 kts 243°
2026-05-04 20:48 50.91909 0.46729 16122 ft 316 kts 253°
2026-05-04 20:48 50.91644 0.43285 15432 ft 314 kts 271°
2026-05-04 20:48 50.92034 0.39889 14745 ft 313 kts 284°
2026-05-04 20:48 50.92645 0.36582 14063 ft 310 kts 284°
2026-05-04 20:49 50.93240 0.33359 13493 ft 303 kts 284°
2026-05-04 20:49 50.93811 0.30261 13348 ft 282 kts 284°
2026-05-04 20:49 50.94349 0.27327 12983 ft 272 kts 284°
2026-05-04 20:49 50.94902 0.24483 12468 ft 268 kts 287°
2026-05-04 20:50 50.95528 0.21702 11936 ft 266 kts 289°
2026-05-04 20:50 50.96180 0.18963 11404 ft 264 kts 289°
2026-05-04 20:50 50.96827 0.16283 10887 ft 262 kts 289°
2026-05-04 20:50 50.97472 0.13588 10365 ft 259 kts 289°
2026-05-04 20:51 50.98103 0.10922 9840 ft 257 kts 289°
2026-05-04 20:51 50.98727 0.08261 9252 ft 255 kts 289°
2026-05-04 20:51 50.99343 0.05626 8665 ft 253 kts 289°
2026-05-04 20:51 50.99945 0.03052 8150 ft 250 kts 289°
2026-05-04 20:52 51.00548 0.00470 7598 ft 248 kts 289°
2026-05-04 20:52 51.01145 -0.02097 7056 ft 246 kts 289°
2026-05-04 20:52 51.01738 -0.04654 6465 ft 246 kts 289°
2026-05-04 20:52 51.02320 -0.07170 5863 ft 244 kts 289°
2026-05-04 20:53 51.02904 -0.09704 5270 ft 243 kts 289°
2026-05-04 20:53 51.03483 -0.12213 4682 ft 241 kts 289°
2026-05-04 20:53 51.04052 -0.14691 4307 ft 232 kts 290°
2026-05-04 20:53 51.04593 -0.17049 4215 ft 224 kts 290°
2026-05-04 20:54 51.05109 -0.19295 4067 ft 210 kts 290°
2026-05-04 20:54 51.05608 -0.21464 3950 ft 207 kts 290°
2026-05-04 20:54 51.06139 -0.23589 3822 ft 206 kts 292°
2026-05-04 20:54 51.06666 -0.25718 3695 ft 206 kts 290°
2026-05-04 20:55 51.07142 -0.27843 3581 ft 206 kts 289°
2026-05-04 20:55 51.07612 -0.29994 3426 ft 205 kts 290°
2026-05-04 20:55 51.08088 -0.32142 3311 ft 205 kts 289°
2026-05-04 20:55 51.08561 -0.34294 3196 ft 205 kts 289°
2026-05-04 20:56 51.08969 -0.36389 3462 ft 199 kts 282°
2026-05-04 20:56 51.09135 -0.38683 3303 ft 213 kts 267°
2026-05-04 20:56 51.08801 -0.40912 3205 ft 204 kts 248°
2026-05-04 20:56 51.08194 -0.42967 3149 ft 205 kts 241°
2026-05-04 20:57 51.07512 -0.44923 3123 ft 204 kts 240°
2026-05-04 20:57 51.06833 -0.46909 3097 ft 205 kts 242°
2026-05-04 20:57 51.06202 -0.48946 3057 ft 204 kts 250°
2026-05-04 20:57 51.05976 -0.51169 2908 ft 203 kts 275°
2026-05-04 20:58 51.06513 -0.53173 2990 ft 200 kts 315°
2026-05-04 20:58 51.07706 -0.54310 3038 ft 202 kts 349°
2026-05-04 20:58 51.09055 -0.54095 2997 ft 199 kts 27°
2026-05-04 20:58 51.10053 -0.52614 3009 ft 199 kts 63°
2026-05-04 20:59 51.10330 -0.50554 3151 ft 188 kts 87°
2026-05-04 20:59 51.10499 -0.48516 3166 ft 185 kts 76°
2026-05-04 20:59 51.10855 -0.46595 3151 ft 179 kts 74°
2026-05-04 20:59 51.11146 -0.44811 3224 ft 158 kts 75°
2026-05-04 21:00 51.11422 -0.43126 3005 ft 157 kts 76°
2026-05-04 21:00 51.11672 -0.41466 2815 ft 150 kts 77°
2026-05-04 21:00 51.11898 -0.39905 2680 ft 142 kts 76°
2026-05-04 21:00 51.12110 -0.38447 2533 ft 135 kts 77°
2026-05-04 21:01 51.12310 -0.37007 2302 ft 132 kts 77°
2026-05-04 21:01 51.12509 -0.35592 2131 ft 130 kts 77°
2026-05-04 21:01 51.12707 -0.34181 1947 ft 131 kts 77°
2026-05-04 21:01 51.12907 -0.32772 1707 ft 130 kts 77°
2026-05-04 21:02 51.13100 -0.31364 1566 ft 130 kts 77°
2026-05-04 21:02 51.13295 -0.29958 1418 ft 130 kts 77°
2026-05-04 21:02 51.13488 -0.28577 1246 ft 129 kts 77°
2026-05-04 21:02 51.13680 -0.27179 1047 ft 129 kts 77°
2026-05-04 21:03 51.13872 -0.25805 872 ft 126 kts 77°
2026-05-04 21:03 51.14060 -0.24441 707 ft 125 kts 77°
2026-05-04 21:03 51.14247 -0.23083 537 ft 125 kts 78°
2026-05-04 21:03 51.14429 -0.21748 376 ft 124 kts 77°
2026-05-04 21:04 51.14616 -0.20414 242 ft 122 kts 77°
2026-05-04 21:04 51.14783 -0.19190 207 ft 94 kts 74°
2026-05-04 21:04 51.14892 -0.18442 204 ft 44 kts 78°
2026-05-04 21:04 51.14921 -0.18225 203 ft 3 kts 78°
2026-05-04 21:05 51.14950 -0.18066 208 ft 21 kts 68°
2026-05-04 21:05 51.15021 -0.17871 211 ft 20 kts 56°
2026-05-04 21:05 51.15049 -0.17811 213 ft 0 kts 52°
2026-05-04 21:05 51.15073 -0.17775 211 ft 11 kts 34°
2026-05-04 21:06 51.15109 -0.17763 210 ft 0 kts 356°